Weather History for KAND - May, 2013

Change the Weather History Date:

Monday, May 20, 2013

  Actual Average Record
Temperature  
Mean Temperature 72 °F -  
Max Temperature 84 °F 81 °F 94 °F (1962)
Min Temperature 62 °F 59 °F 44 °F (2008)
Cooling Degree Days 7    
Growing Degree Days 22 (Base 50)    
Moisture  
Dew Point 65 °F    
Average Humidity 91    
Maximum Humidity 100    
Minimum Humidity 56    
Precipitation  
Precipitation 0.01 in - - ()
Sea Level Pressure  
Sea Level Pressure 30.07 in    
Wind  
Wind Speed 1 mph (WNW)    
Max Wind Speed 8 mph    
Max Gust Speed -    
Visibility 5 miles    
Events Fog    
Averages and records for this station are not official NWS values.
T = Trace of Precipitation, MM = Missing Value Source: NWS Daily Summary

Daily Weather History Graph

Daily Weather History Graph

Search for Another Location

Airport or City:

Trip Planner

Search our weather history database for the weather conditions in past years. The results will help you decide how hot, cold, wet, or windy it might be!

Date:

Astronomy

May. 20, 2013 Rise Set
Actual Time 6:24 AM EDT 8:30 PM EDT
Civil Twilight 5:56 AM EDT 8:58 PM EDT
Nautical Twilight 5:22 AM EDT 9:33 PM EDT
Astronomical Twilight 4:45 AM EDT 10:10 PM EDT
Moon 3:48 PM EDT (5/20) 3:06 AM EDT (5/20)
Length of Visible Light 15h 02m
Length of Day
14h 05m
Waxing Gibbous, 75% of the Moon is Illuminated
May 20
Waxing Gibbous
May 25
Full
May 31
Last Quarter
Jun 8
New
Jun 16
First Quarter

Hourly Weather History & Observations

Time (EDT) Temp. Heat Index Dew Point Humidity Pressure Visibility Wind Dir Wind Speed Gust Speed Precip Events Conditions
12:00 AM 64.4 °F - 64.4 °F 100% 30.08 in 0.8 mi Calm Calm - N/A   Mist
12:03 AM 64.4 °F - 64.4 °F 100% 30.08 in 1.2 mi East 3.5 mph - N/A   Scattered Clouds
12:06 AM 64.4 °F - 64.4 °F 100% 30.08 in 3.0 mi Calm Calm - N/A   Partly Cloudy
12:32 AM 64.4 °F - 64.4 °F 100% 30.08 in 2.5 mi Calm Calm - N/A   Partly Cloudy
12:42 AM 64.4 °F - 64.4 °F 100% 30.07 in 2.5 mi Calm Calm - N/A   Scattered Clouds
12:44 AM 64.4 °F - 64.4 °F 100% 30.07 in 3.0 mi Calm Calm - N/A   Mostly Cloudy
12:56 AM 64.9 °F - 64.0 °F 97% 30.05 in 2.5 mi Calm Calm - N/A   Mostly Cloudy
1:03 AM 64.4 °F - 64.4 °F 100% 30.08 in 4.0 mi Calm Calm - N/A   Mostly Cloudy
1:21 AM 64.4 °F - 64.4 °F 100% 30.08 in 2.5 mi Calm Calm - N/A   Scattered Clouds
1:30 AM 64.4 °F - 64.4 °F 100% 30.08 in 1.8 mi Calm Calm - N/A   Mostly Cloudy
1:45 AM 64.4 °F - 64.4 °F 100% 30.08 in 2.0 mi Calm Calm - N/A   Scattered Clouds
1:54 AM 64.4 °F - 64.4 °F 100% 30.08 in 3.0 mi Calm Calm - N/A   Partly Cloudy
1:56 AM 64.0 °F - 64.0 °F 100% 30.06 in 4.0 mi Calm Calm - N/A   Partly Cloudy
2:22 AM 62.6 °F - 62.6 °F 100% 30.07 in 2.0 mi Calm Calm - N/A   Partly Cloudy
2:24 AM 62.6 °F - 62.6 °F 100% 30.07 in 1.0 mi Calm Calm - N/A   Mist
2:31 AM 64.4 °F - 64.4 °F 100% 30.07 in 0.8 mi Calm Calm - N/A   Mist
2:41 AM 64.4 °F - 62.6 °F 94% 30.07 in 0.5 mi Calm Calm - N/A Fog Fog
2:49 AM 62.6 °F - 62.6 °F 100% 30.07 in 0.8 mi Calm Calm - N/A   Mostly Cloudy
2:53 AM 62.6 °F - 62.6 °F 100% 30.07 in 2.0 mi NNW 3.5 mph - N/A   Mostly Cloudy
2:56 AM 64.0 °F - 63.0 °F 96% 30.05 in 3.0 mi NNW 3.5 mph - N/A   Mostly Cloudy
3:27 AM 62.6 °F - 62.6 °F 100% 30.07 in 5.0 mi Calm Calm - N/A   Mostly Cloudy
3:38 AM 64.4 °F - 62.6 °F 94% 30.08 in 4.0 mi Calm Calm - N/A   Mostly Cloudy
3:46 AM 62.6 °F - 62.6 °F 100% 30.08 in 7.0 mi Calm Calm - N/A   Overcast
3:56 AM 64.0 °F - 63.0 °F 96% 30.06 in 5.0 mi Calm Calm - N/A   Overcast
4:32 AM 64.4 °F - 64.4 °F 100% 30.08 in 5.0 mi NW 3.5 mph - N/A   Overcast
4:54 AM 64.4 °F - 64.4 °F 100% 30.07 in 5.0 mi Calm Calm - N/A   Overcast
4:56 AM 64.9 °F - 64.9 °F 100% 30.05 in 5.0 mi Calm Calm - N/A   Overcast
5:07 AM 66.2 °F - 64.4 °F 94% 30.07 in 6.0 mi Calm Calm - N/A   Overcast
5:28 AM 64.4 °F - 64.4 °F 100% 30.06 in 3.0 mi Calm Calm - N/A   Overcast
5:31 AM 64.4 °F - 64.4 °F 100% 30.06 in 1.5 mi Calm Calm - N/A   Overcast
5:37 AM 64.4 °F - 64.4 °F 100% 30.06 in 0.5 mi Calm Calm - N/A Fog Fog
5:48 AM 64.4 °F - 64.4 °F 100% 30.06 in 0.2 mi Calm Calm - N/A Fog Fog
5:56 AM 64.9 °F - 64.9 °F 100% 30.04 in 0.2 mi North 3.5 mph - N/A Fog Fog
6:56 AM 64.9 °F - 64.9 °F 100% 30.06 in 0.2 mi Calm Calm - N/A Fog Fog
7:56 AM 66.0 °F - 66.0 °F 100% 30.10 in 0.2 mi Calm Calm - 0.01 in Fog Fog
8:07 AM 66.2 °F - 66.2 °F 100% 30.12 in 0.5 mi Calm Calm - N/A Fog Fog
8:24 AM 66.2 °F - 66.2 °F 100% 30.11 in 1.0 mi East 3.5 mph - N/A   Overcast
8:34 AM 66.2 °F - 66.2 °F 100% 30.11 in 3.0 mi SE 3.5 mph - N/A   Overcast
8:56 AM 66.9 °F - 66.0 °F 97% 30.10 in 9.0 mi Calm Calm - N/A   Overcast
9:24 AM 69.8 °F - 68.0 °F 94% 30.12 in 10.0 mi Calm Calm - N/A   Overcast
9:56 AM 71.1 °F - 66.9 °F 87% 30.11 in 10.0 mi Calm Calm - N/A   Overcast
10:13 AM 71.6 °F - 66.2 °F 83% 30.12 in 10.0 mi Calm Calm - N/A   Overcast
10:56 AM 73.9 °F - 66.9 °F 79% 30.11 in 10.0 mi Calm Calm - N/A   Mostly Cloudy
11:07 AM 73.4 °F - 66.2 °F 78% 30.13 in 10.0 mi Calm Calm - N/A   Scattered Clouds
11:56 AM 78.1 °F - 66.9 °F 68% 30.10 in 10.0 mi Calm Calm - N/A   Scattered Clouds
12:56 PM 79.0 °F - 66.0 °F 64% 30.08 in 10.0 mi Calm Calm - N/A   Clear
1:56 PM 80.1 °F 82.1 °F 66.0 °F 62% 30.07 in 10.0 mi SW 4.6 mph - N/A   Scattered Clouds
2:56 PM 81.0 °F 83.3 °F 66.9 °F 62% 30.06 in 10.0 mi Calm Calm - N/A   Partly Cloudy
3:56 PM 82.9 °F 85.0 °F 66.0 °F 56% 30.03 in 10.0 mi Variable 6.9 mph - N/A   Partly Cloudy
4:56 PM 82.0 °F 84.5 °F 66.9 °F 60% 30.03 in 10.0 mi West 6.9 mph - N/A   Scattered Clouds
5:56 PM 82.9 °F 85.4 °F 66.9 °F 58% 30.03 in 10.0 mi West 8.1 mph - N/A   Mostly Cloudy
6:56 PM 81.0 °F 83.3 °F 66.9 °F 62% 30.01 in 10.0 mi West 4.6 mph - N/A   Clear
7:56 PM 78.1 °F - 68.0 °F 71% 30.02 in 10.0 mi WSW 4.6 mph - N/A   Clear
8:56 PM 75.0 °F - 69.1 °F 82% 30.01 in 10.0 mi Calm Calm - N/A   Clear
9:56 PM 72.0 °F - 69.1 °F 91% 30.03 in 10.0 mi Calm Calm - N/A   Clear
10:56 PM 71.1 °F - 68.0 °F 90% 30.04 in 10.0 mi Calm Calm - N/A   Clear
11:56 PM 68.0 °F - 66.9 °F 96% 30.02 in 8.0 mi Calm Calm - N/A   Clear